Thu, 2019 July 18. @ 23:17 (Europe/Berlin) | Change timezone

Search

Search

Find competitions and teams quickly

Compare

Compare

Click on this h2h icon anywhere to compare teams and see statistics

Fixtures

Fixtures

View today's matches, tomorrow's fixtures, yesterday's results or fixtures on any specific date by using the calendar


Fixtures - 2018.09.14

Group by: leagues | time
Time Home Score Away 1 X 2 H2H
 Hockey Austria Eishockey Liga 2018/2019
18:45 Feh 5 : 2 Medveščak Zagreb KHL 2.30 4.40 2.38
19:15 Linz 2 : 3 ot(p) CE Wien 2.25 4.53 2.41
19:15 Villach 4 : 3 ot Znojmo 2.12 4.53 2.58
19:15 Innsbruck 3 : 4 ot Dornbirn 1.94 4.60 2.90
19:15 Salzburg 2 : 4 Klagenfurt 1.81 4.60 3.28
19:45 Bolzano 4 : 2 Graz 1.51 5.40 4.34
 Handball Austria HLA M 2018/2019
19:00 Bregenz Handball A1 23 : 25 Alpla HC Hard 1.67 8.06 2.69
19:30 UHK Krems 27 : 23 Union Leoben 1.10 15.75 8.13
19:30 Ferlach 37 : 31 Hurricanes Linz 1.32 10.50 4.15
 Hockey CHL Kontinental Hockey League 2018/2019
11:30 Chabarovsk Amur 0 : 2 Admiral Vladivostok 1.83 4.15 3.65
14:30 Novosibirsk 3 : 4 Nižněkamsk 2.23 4.02 2.69
15:30 Barys Astana 4 : 1 Nižnyj Novgorod 2.48 4.10 2.38
16:00 Ufa 4 : 5 ot(p) Kazaň 2.20 4.27 2.65
18:30 Dynamo Minsk 1 : 3 Sochi 2.23 3.97 2.75
18:30 Petrohrad 2 : 1 Spartak Moskva 1.34 6.30 6.45
18:30 Vitiaz Chekhov 1 : 4 Jokerit Helsinki 3.10 4.18 2.00
 Hockey Czech Republic Extraleague 2018/2019
17:30 Mladá Boleslav 3 : 4 Litvínov 1.97 4.17 3.07
17:30 Plzeň 4 : 0 Liberec 1.82 4.48 3.35
17:30 Zlín 4 : 2 Třinec 2.68 4.10 2.18
18:00 Pardubice 1 : 2 Vítkovice 2.23 4.02 2.67
18:00 Olomouc 4 : 1 Karlovy Vary 1.68 4.65 3.87
18:30 Sparta Praha 4 : 0 Hradec Králové 1.86 4.32 3.33
 Handball Denmark 1st League M 2018/2019
18:00 Nordsjalland Handbold 29 : 25 Lemvig Handbold 1.22 12.25 5.68
19:30 Midtsjaelland Ringsted 24 : 22 MORS HF 2.80 8.38 1.67
 Handball Denmark 1st League W 2018/2019
18:30 Silkeborg 26 : 27 Nykobing NFH 3.08 9.69 1.52
19:30 Ringkobing 21 : 21 Arhus SK 4.36 10.50 1.32
 Hockey Denmark SuperBest-ligaen 2018/2019
19:00 Rodovre Kobenhavn 1 : 3 Sonderjylland IK 3.22 4.41 1.87
19:30 Fredrikshavn 5 : 4 ot Herning 2.52 4.32 2.22
19:30 Aalborg 5 : 1 Odense 1.40 6.00 5.00
19:45 Rungsted 8 : 1 Totempo Hvidovre HVIK 1.41 6.25 4.83
 Hockey Finland SM Liiga 2018/2019
17:30 Jyp Jyväskylä 3 : 4 ot IFK Helsinki 2.15 4.10 2.78
17:30 Tappara Tampere 1 : 2 Ilves Tampere 1.73 4.39 3.77
17:30 Lukko Rauma 2 : 3 ot Ässät Pori 2.07 4.34 2.80
17:30 KooKoo Kouvola 5 : 6 ot(p) Saipa 2.33 4.30 2.43
17:30 Sport Vaasa 4 : 2 Lahti Pelicans 2.25 4.25 2.57
17:30 Kalpa Kuopio 3 : 4 ot Jukurit Mikkeli 1.93 4.12 3.20
17:30 TPS Turku 2 : 1 ot Hämeenlinna 1.68 4.63 3.80
 Soccer France Ligue 1 2018/2019
19:00 Nice 2 : 1 Rennes 2.60 3.18 2.88
20:45 Paris SG 4 : 0 St. Etienne 1.23 6.59 12.25
 Soccer France National 2018/2019
20:00 Pau 1 : 1 Villefranche 2.44 2.87 2.84
20:00 Cholet 1 : 2 Laval 2.72 3.02 2.46
20:00 Marignane 1 : 1 Bourg 2.14 2.95 3.35
20:00 Chambly 2 : 0 Boulogne 2.50 2.97 2.67
20:00 Lyon Duchere 1 : 1 Concarneau 1.98 3.03 3.66
20:00 Avranches 1 : 1 Quevilly 2.52 2.99 2.64
20:00 Sannois 2 : 0 Jeanne D'Arc 2.37 2.93 2.96
20:00 Dunkerque 1 : 2 Rodez 2.05 3.00 3.48
 Hockey Germany 2. Bundesliga 2018/2019
19:30 Frankfurt 5 : 2 Kaufbeuren 1.86 4.75 2.95
19:30 Tölzer Löwen 5 : 2 Bayreuth ESV 1.88 4.75 2.87
19:30 Bad Nauheim 3 : 4 Kassel 2.28 4.68 2.30
19:30 Lausitzer Füchse 5 : 4 ot Freiburg 1.93 4.85 2.75
20:00 Ravensburg 8 : 1 Dresden 2.02 4.70 2.63
20:00 Heilbronn 3 : 2 Crimmitschau 1.81 4.77 3.03
20:00 Bietigheim 4 : 2 Deggendorfer 1.20 7.75 7.75
 Soccer Germany Bundesliga 2018/2019
20:30 Dortmund 3 : 1 Frankfurt Eintracht 1.41 4.88 7.45
 Hockey Germany DEL 2018/2019
19:30 Schwenningen 3 : 2 ot Norimberk 2.67 4.30 2.13
19:30 Krefeld 3 : 4 ot Bremerhaven 2.30 4.37 2.43
19:30 Eisbaren 2 : 4 München 2.35 4.57 2.33
19:30 Köln 4 : 5 ot Augsburg 1.68 4.83 3.75
19:30 Straubing 4 : 2 Ingolstadt ERC 2.55 4.60 2.17
19:30 Iserlohn Roosters 5 : 2 Wolfsburg 2.42 4.37 2.32
19:30 Mannheim 1 : 2 ot Düsseldorf 1.64 5.08 3.72
 Soccer Italy Serie B 2018/2019
21:00 Venezia AC 2 : 3 Benevento 2.69 2.91 2.81
 Soccer Netherlands Eerste Divisie 2018/2019
20:00 Volendam 0 : 0 Top Oss 2.23 3.52 2.90
20:00 Dordrecht 0 : 2 Twente Enschede 4.39 4.03 1.66
20:00 NEC Nijmegen 4 : 4 Eindhoven (Am.) 1.40 4.81 6.50
20:00 Cambuur Leeuwarden 2 : 0 Telstar 1.63 3.83 4.84
20:00 Alkmaar AZ (Am.) 3 : 2 Deventer 3.40 3.63 1.93
20:00 Omniworld 3 : 1 Utrecht (Am.) 1.37 5.00 6.63
20:00 Waalwijk RKC 0 : 1 Roda Kerkade 2.45 3.50 2.60
20:00 EW Eindhoven 0 : 1 Maastricht 2.31 3.71 2.68
 Handball Norway Eliteserien M 2018/2019
18:00 Fyllingen 29 : 20 Bodo BHK 1.02 23.00 14.25
 Handball Poland 1.liga M 2018/2019
18:00 Stal Mielec 24 : 41 Pulawy Wisla-Azoty 8.34 17.00 1.09
18:30 Wybrzeze Gdansk 26 : 27 Kwidzyn MMTS 2.30 8.54 1.83
 Hockey Poland Ekstraliga 2018/2019
18:00 Unia Osvětim 3 : 2 ot Orlik Opole 1.55 5.13 3.97
18:30 Kraków 2 : 1 Stoczniowiec Gdaňsk 1.22 7.13 7.25
18:30 Katowice 3 : 2 Zagłębie Sosnowiec 1.13 9.00 8.75
 Hockey Slovakia Extraliga 2018/2019
17:30 Žilina 4 : 5 Detva 07 HC 1.73 4.60 3.50
17:30 Košice 5 : 2 Zvolen 1.89 4.57 3.03
17:30 Banská Bystrica 4 : 5 ot(p) Liptovský Mikuláš 1.18 8.08 9.67
18:00 Trenčín 4 : 2 Poprad 1.60 4.88 4.00
18:00 Nitra 6 : 1 Miskolci JJSE 1.32 6.50 5.83
19:00 Budapest MAC 1 : 7 Nov 2.41 4.44 2.27
 Handball Slovakia Extraliga M 2018/2019
19:00 Modra Slovan 20 : 20 Bratislava 5.00 13.00 1.30
 Handball Spain Asobal M 2018/2019
20:30 Rayet Guadalajara 31 : 26 SD Teucro 1.42 9.63 3.73
 Soccer Spain La Liga 2018/2019
21:00 Huesca 0 : 1 Vallecano Madrid 2.26 3.40 3.19
 Soccer Spain Segunda B - Group III 2018/2019
20:30 Levante B 0 : 1 Valencia FC B 2.32 3.11 2.81
 Handball Sweden Elitserien M 2018/2019
19:00 Guif IF 23 : 27 Alingsas HK 2.39 7.69 1.89
 Soccer Switzerland Schweizer Pokal 2018/2019
20:00 Bavois 2 : 3 ot Rapperswil-Jona 6.06 4.57 1.40
 Soccer Turkey Super League 2018/2019
20:00 Galatasaray 4 : 1 Kasimpasa SK Istanbul 1.57 4.33 5.13
 Soccer Wales Premier League 2018/2019
20:45 Connah's Quay 3 : 1 Newtown AFC 1.55 4.08 5.10
20:45 Llanelli AFC 0 : 2 Llansantffraid 19.88 9.76 1.07

Sport statistics

  • soccer, basketball, handball and icehockey statistics from more than 150 leagues (results, tables, fixtures, other usefull statistics, bookies odds etc.)
  • other useful things: comparision of teams and leagues, streaks, selections, predictions, head-to-head
  • the statistics are updated three times each day
  • RSS feeds for the upcoming matches from each sport, just click on the RSS feed in the URL field of your browser
  • archived competitions, most of them from 2003

For a detailed description of all functions and their usage check our Help page.